星链-2641 (STARLINK-2641 )

导读

STARLINK-2641是美国(US)SpaceX公司星链(Starlink)项目中的一颗卫星,于2021年5月4日发射升空,属于星链互联网卫星星座的组成部分,主要用于为全球提供低延迟、高速率的宽带互联网服务,依托近地轨道部署,推进全球网络覆盖建设。

Basic Information
目录编号:
48369
目录名称:
STARLINK-2641
国际标识:
2021-038S
轨道中心:
EARTH
卫星名称:
星链-2641
卫星全名:
星链-2641 (STARLINK-2641 )
卫星状态:
已陨落 最后检测时间 2025-04-07
发射日期:
2021-05-04 UTC
国别 :
美国 (US)
星等 :
--
Orbit Information
数据来源 国际轨道数据
星历时间: 2025-04-07T14:46:46+0800
轨道信息已过期437天
半长轴: 6532.299km
偏心率: 0.0004806
轨道倾角: 53.049°
近地点辐角 258.880°
升交点赤经 37.389°
平近点角 224.668°
近地点: 151.024km
远地点: 157.304km
周期: 87.571分钟
每日圈数: 16.443858
Detailed Information
固有亮度:
5
最大亮度:
2.5
卫星平台:
Starlink V1.0
覆盖范围:
全球
运营商:
太空探索技术公司
运营商所在国:
美国
制造商(研发单位):
太空探索技术公司
制造商所在国:
美国
使用方式:
暂无
Satellite Introduction
星链(Starlink)计划是由太空探索技术公司(SpaceX)提出的一个巨型低轨卫星互联网星座项目,计划在2019年至2024年间在太空搭建由约1.2万颗卫星组成的“星链”网络,其中1584颗将部署在地球上空550千米处的近地轨道,并从2020年开始工作。该卫星仍在工作。